Wetterdaten: Freitag, 01.05.2015
Datum Zeit Temp. A. Feuchte A. Luftdruck Regen Wind Richtung Richtung Sonnenschein ET UV Solar Taupunkt Windchill Windben Empfang
01.05.2015 00:00 6,2 C 92 % 1013,4 hPa 0,0 l/m 0,0 km/h (0 Bft) S 179 0 min 0,000 mm 0,0 UV-I 0 W/m 5,0 C 6,2 C 0,0 km/h (0 Bft) 0,00 %
01.05.2015 00:15 6,0 C 94 % 1013,2 hPa 0,0 l/m 0,0 km/h (0 Bft) S-SO 163 0 min 0,000 mm 0,0 UV-I 0 W/m 5,1 C 6,0 C 0,0 km/h (0 Bft) 0,00 %
01.05.2015 00:30 6,3 C 94 % 1013,1 hPa 0,0 l/m 0,0 km/h (0 Bft) S-SW 203 0 min 0,000 mm 0,0 UV-I 0 W/m 5,4 C 6,3 C 0,0 km/h (0 Bft) 0,00 %
01.05.2015 00:45 6,2 C 94 % 1013,4 hPa 0,0 l/m 0,0 km/h (0 Bft) S-SW 201 0 min 0,000 mm 0,0 UV-I 0 W/m 5,3 C 6,2 C 0,0 km/h (0 Bft) 0,00 %
01.05.2015 01:00 6,1 C 95 % 1014,0 hPa 0,0 l/m 0,0 km/h (0 Bft) S 179 0 min 0,000 mm 0,0 UV-I 0 W/m 5,4 C 6,1 C 0,0 km/h (0 Bft) 0,00 %
01.05.2015 01:15 6,2 C 95 % 1013,8 hPa 0,0 l/m 0,0 km/h (0 Bft) S-SW 197 0 min 0,000 mm 0,0 UV-I 0 W/m 5,5 C 6,2 C 0,0 km/h (0 Bft) 0,00 %
01.05.2015 01:30 6,7 C 96 % 1013,5 hPa 0,0 l/m 0,0 km/h (0 Bft) S 183 0 min 0,000 mm 0,0 UV-I 0 W/m 6,1 C 6,7 C 0,0 km/h (0 Bft) 0,00 %
01.05.2015 01:45 6,7 C 96 % 1013,5 hPa 0,0 l/m 0,0 km/h (0 Bft) SW 223 0 min 0,000 mm 0,0 UV-I 0 W/m 6,1 C 6,7 C 0,0 km/h (0 Bft) 0,00 %
01.05.2015 02:00 6,8 C 96 % 1013,5 hPa 0,0 l/m 0,0 km/h (0 Bft) O-SO 119 0 min 0,000 mm 0,0 UV-I 0 W/m 6,2 C 6,8 C 0,0 km/h (0 Bft) 0,00 %
01.05.2015 02:15 7,0 C 97 % 1013,3 hPa 0,0 l/m 0,0 km/h (0 Bft) SO 135 0 min 0,000 mm 0,0 UV-I 0 W/m 6,6 C 7,0 C 0,0 km/h (0 Bft) 0,00 %
01.05.2015 02:30 7,0 C 97 % 1013,0 hPa 0,0 l/m 0,0 km/h (0 Bft) SO 132 0 min 0,000 mm 0,0 UV-I 0 W/m 6,6 C 7,0 C 0,0 km/h (0 Bft) 0,00 %
01.05.2015 02:45 7,0 C 97 % 1012,5 hPa 0,3 l/m 0,0 km/h (0 Bft) SW 220 0 min 0,000 mm 0,0 UV-I 0 W/m 6,6 C 7,0 C 0,0 km/h (0 Bft) 0,00 %
01.05.2015 03:00 6,8 C 97 % 1012,0 hPa 0,0 l/m 0,0 km/h (0 Bft) S 180 0 min 0,000 mm 0,0 UV-I 0 W/m 6,4 C 6,8 C 0,0 km/h (0 Bft) 0,00 %
01.05.2015 03:15 6,6 C 97 % 1012,0 hPa 0,0 l/m 0,0 km/h (0 Bft) S 182 0 min 0,000 mm 0,0 UV-I 0 W/m 6,2 C 6,6 C 0,0 km/h (0 Bft) 0,00 %
01.05.2015 03:30 6,5 C 97 % 1011,8 hPa 0,3 l/m 0,0 km/h (0 Bft) S-SW 195 0 min 0,000 mm 0,0 UV-I 0 W/m 6,1 C 6,5 C 0,0 km/h (0 Bft) 0,00 %
01.05.2015 03:45 6,5 C 97 % 1011,2 hPa 0,0 l/m 0,0 km/h (0 Bft) S 172 0 min 0,000 mm 0,0 UV-I 0 W/m 6,1 C 6,5 C 0,0 km/h (0 Bft) 0,00 %
01.05.2015 04:00 6,5 C 97 % 1011,0 hPa 0,0 l/m 0,0 km/h (0 Bft) S 182 0 min 0,000 mm 0,0 UV-I 0 W/m 6,1 C 6,5 C 0,0 km/h (0 Bft) 0,00 %
01.05.2015 04:15 6,4 C 98 % 1010,8 hPa 0,0 l/m 0,0 km/h (0 Bft) S-SW 195 0 min 0,000 mm 0,0 UV-I 0 W/m 6,1 C 6,4 C 0,0 km/h (0 Bft) 0,00 %
01.05.2015 04:30 6,4 C 97 % 1010,6 hPa 0,0 l/m 0,0 km/h (0 Bft) S 182 0 min 0,000 mm 0,0 UV-I 0 W/m 6,0 C 6,4 C 0,0 km/h (0 Bft) 0,00 %
01.05.2015 04:45 6,5 C 97 % 1010,5 hPa 0,0 l/m 0,4 km/h (0 Bft) O 97 0 min 0,000 mm 0,0 UV-I 0 W/m 6,1 C 6,5 C 4,0 km/h (1 Bft) 0,00 %
01.05.2015 05:00 6,6 C 97 % 1010,4 hPa 0,0 l/m 0,0 km/h (0 Bft) S 182 0 min 0,000 mm 0,0 UV-I 0 W/m 6,2 C 6,6 C 0,0 km/h (0 Bft) 0,00 %
01.05.2015 05:15 6,7 C 97 % 1010,3 hPa 0,0 l/m 0,0 km/h (0 Bft) S 182 0 min 0,000 mm 0,0 UV-I 0 W/m 6,3 C 6,7 C 0,0 km/h (0 Bft) 0,00 %
01.05.2015 05:30 6,7 C 97 % 1010,4 hPa 0,3 l/m 0,0 km/h (0 Bft) S 179 0 min 0,000 mm 0,0 UV-I 0 W/m 6,3 C 6,7 C 0,0 km/h (0 Bft) 0,00 %
01.05.2015 05:45 6,6 C 97 % 1010,5 hPa 0,3 l/m 0,0 km/h (0 Bft) S 187 0 min 0,000 mm 0,0 UV-I 0 W/m 6,2 C 6,6 C 0,0 km/h (0 Bft) 0,00 %
01.05.2015 06:00 6,6 C 97 % 1010,4 hPa 0,0 l/m 0,0 km/h (0 Bft) S-SW 196 0 min 0,000 mm 0,0 UV-I 0 W/m 6,2 C 6,6 C 0,0 km/h (0 Bft) 0,00 %
01.05.2015 06:15 6,7 C 97 % 1010,4 hPa 0,0 l/m 0,0 km/h (0 Bft) S-SW 196 0 min 0,000 mm 0,0 UV-I 0 W/m 6,3 C 6,7 C 0,0 km/h (0 Bft) 0,00 %
01.05.2015 06:30 6,7 C 97 % 1010,5 hPa 0,3 l/m 0,0 km/h (0 Bft) S-SW 194 0 min 0,000 mm 0,0 UV-I 0 W/m 6,3 C 6,7 C 0,0 km/h (0 Bft) 0,00 %
01.05.2015 06:45 6,9 C 97 % 1010,5 hPa 0,3 l/m 0,0 km/h (0 Bft) S 184 0 min 0,000 mm 0,0 UV-I 1 W/m 6,5 C 6,9 C 0,0 km/h (0 Bft) 0,00 %
01.05.2015 07:00 7,1 C 97 % 1010,5 hPa 0,3 l/m 0,0 km/h (0 Bft) S 187 0 min 0,000 mm 0,0 UV-I 10 W/m 6,7 C 7,1 C 0,0 km/h (0 Bft) 0,00 %
01.05.2015 07:15 7,3 C 97 % 1010,4 hPa 0,3 l/m 0,0 km/h (0 Bft) S 184 0 min 0,000 mm 0,0 UV-I 18 W/m 6,9 C 7,3 C 0,0 km/h (0 Bft) 0,00 %
01.05.2015 07:30 7,4 C 98 % 1010,3 hPa 0,0 l/m 0,0 km/h (0 Bft) S 189 0 min 0,000 mm 1,0 UV-I 30 W/m 7,1 C 7,4 C 0,0 km/h (0 Bft) 0,00 %
01.05.2015 07:45 7,6 C 98 % 1010,2 hPa 0,3 l/m 0,0 km/h (0 Bft) S 190 0 min 0,000 mm 1,0 UV-I 34 W/m 7,3 C 7,6 C 0,0 km/h (0 Bft) 0,00 %
01.05.2015 08:00 7,8 C 98 % 1010,2 hPa 0,3 l/m 0,0 km/h (0 Bft) S 182 0 min 0,000 mm 1,0 UV-I 62 W/m 7,5 C 7,8 C 0,0 km/h (0 Bft) 0,00 %
01.05.2015 08:15 8,1 C 98 % 1010,1 hPa 0,0 l/m 0,0 km/h (0 Bft) S 169 0 min 0,000 mm 1,0 UV-I 65 W/m 7,8 C 8,1 C 0,0 km/h (0 Bft) 0,00 %
01.05.2015 08:30 8,1 C 98 % 1010,1 hPa 0,3 l/m 0,0 km/h (0 Bft) S 181 0 min 0,000 mm 1,0 UV-I 83 W/m 7,8 C 8,1 C 0,0 km/h (0 Bft) 0,00 %
01.05.2015 08:45 8,8 C 97 % 1009,8 hPa 0,0 l/m 0,0 km/h (0 Bft) S 184 0 min 0,000 mm 1,0 UV-I 86 W/m 8,4 C 8,8 C 0,0 km/h (0 Bft) 0,00 %
01.05.2015 09:00 9,1 C 96 % 1009,9 hPa 0,3 l/m 0,0 km/h (0 Bft) S 179 0 min 0,000 mm 1,0 UV-I 114 W/m 8,5 C 9,1 C 0,0 km/h (0 Bft) 0,00 %
01.05.2015 09:15 9,2 C 93 % 1009,7 hPa 0,0 l/m 0,0 km/h (0 Bft) S 186 0 min 0,000 mm 1,0 UV-I 143 W/m 8,1 C 9,2 C 0,0 km/h (0 Bft) 0,00 %
01.05.2015 09:30 9,5 C 92 % 1009,4 hPa 0,3 l/m 0,0 km/h (0 Bft) O 90 0 min 0,000 mm 1,0 UV-I 160 W/m 8,3 C 9,5 C 0,0 km/h (0 Bft) 0,00 %
01.05.2015 09:45 9,5 C 90 % 1009,5 hPa 0,0 l/m 0,0 km/h (0 Bft) W-SW 254 0 min 0,000 mm 1,0 UV-I 192 W/m 7,9 C 9,5 C 0,0 km/h (0 Bft) 0,00 %
01.05.2015 10:00 9,7 C 89 % 1009,2 hPa 0,0 l/m 0,0 km/h (0 Bft) S-SW 198 0 min 0,000 mm 1,0 UV-I 174 W/m 8,0 C 9,7 C 0,0 km/h (0 Bft) 0,00 %
01.05.2015 10:15 9,9 C 89 % 1009,2 hPa 0,3 l/m 0,0 km/h (0 Bft) S-SW 197 0 min 0,000 mm 1,0 UV-I 195 W/m 8,2 C 9,9 C 0,0 km/h (0 Bft) 0,00 %
01.05.2015 10:30 10,1 C 87 % 1009,0 hPa 0,0 l/m 0,4 km/h (0 Bft) SW 226 0 min 0,000 mm 2,0 UV-I 160 W/m 8,0 C 10,1 C 4,0 km/h (1 Bft) 0,00 %
01.05.2015 10:45 10,5 C 85 % 1008,7 hPa 0,0 l/m 0,0 km/h (0 Bft) SW 229 0 min 0,000 mm 2,0 UV-I 205 W/m 8,1 C 10,5 C 0,0 km/h (0 Bft) 0,00 %
01.05.2015 11:00 10,9 C 82 % 1008,3 hPa 0,0 l/m 0,0 km/h (0 Bft) S-SW 201 0 min 0,000 mm 3,0 UV-I 235 W/m 7,9 C 10,9 C 0,0 km/h (0 Bft) 0,00 %
01.05.2015 11:15 11,3 C 81 % 1008,2 hPa 0,0 l/m 0,0 km/h (0 Bft) S 187 0 min 0,000 mm 2,0 UV-I 298 W/m 8,2 C 11,3 C 0,0 km/h (0 Bft) 0,00 %
01.05.2015 11:30 11,4 C 79 % 1008,1 hPa 0,0 l/m 2,2 km/h (1 Bft) SO 131 0 min 0,000 mm 2,0 UV-I 315 W/m 7,9 C 11,4 C 4,0 km/h (1 Bft) 0,00 %
01.05.2015 11:45 12,1 C 78 % 1007,6 hPa 0,0 l/m 0,0 km/h (0 Bft) S 177 0 min 0,000 mm 3,0 UV-I 299 W/m 8,4 C 12,1 C 0,0 km/h (0 Bft) 0,00 %
01.05.2015 12:00 12,5 C 69 % 1007,4 hPa 0,0 l/m 0,0 km/h (0 Bft) SO 128 0 min 0,000 mm 3,0 UV-I 394 W/m 7,0 C 12,5 C 0,0 km/h (0 Bft) 0,00 %
01.05.2015 12:15 13,0 C 73 % 1007,3 hPa 0,0 l/m 0,0 km/h (0 Bft) S 177 0 min 0,000 mm 3,0 UV-I 360 W/m 8,3 C 13,0 C 0,0 km/h (0 Bft) 0,00 %
01.05.2015 12:30 12,0 C 74 % 1007,2 hPa 0,0 l/m 0,0 km/h (0 Bft) O-SO 117 0 min 0,000 mm 2,0 UV-I 361 W/m 7,5 C 12,0 C 0,0 km/h (0 Bft) 0,00 %
01.05.2015 12:45 12,1 C 73 % 1007,1 hPa 0,0 l/m 0,0 km/h (0 Bft) S 183 0 min 0,000 mm 2,0 UV-I 358 W/m 7,4 C 12,1 C 0,0 km/h (0 Bft) 0,00 %
01.05.2015 13:00 12,4 C 72 % 1007,1 hPa 0,0 l/m 1,4 km/h (1 Bft) NO 47 0 min 0,000 mm 2,0 UV-I 296 W/m 7,5 C 12,4 C 4,0 km/h (1 Bft) 0,00 %
01.05.2015 13:15 11,6 C 79 % 1007,1 hPa 0,0 l/m 0,0 km/h (0 Bft) N 356 0 min 0,000 mm 2,0 UV-I 335 W/m 8,1 C 11,6 C 0,0 km/h (0 Bft) 0,00 %
01.05.2015 13:30 11,2 C 80 % 1007,2 hPa 0,0 l/m 0,0 km/h (0 Bft) SO 141 0 min 0,000 mm 2,0 UV-I 305 W/m 7,9 C 11,2 C 0,0 km/h (0 Bft) 0,00 %
01.05.2015 13:45 11,3 C 78 % 1007,0 hPa 0,0 l/m 0,0 km/h (0 Bft) W-NW 296 0 min 0,000 mm 2,0 UV-I 245 W/m 7,6 C 11,3 C 0,0 km/h (0 Bft) 0,00 %
01.05.2015 14:00 11,5 C 78 % 1006,9 hPa 0,3 l/m 0,0 km/h (0 Bft) SW 233 0 min 0,000 mm 2,0 UV-I 255 W/m 7,8 C 11,5 C 0,0 km/h (0 Bft) 0,00 %
01.05.2015 14:15 11,4 C 79 % 1006,7 hPa 0,0 l/m 0,0 km/h (0 Bft) O 80 0 min 0,000 mm 3,0 UV-I 242 W/m 7,9 C 11,4 C 0,0 km/h (0 Bft) 0,00 %
01.05.2015 14:30 11,5 C 78 % 1006,8 hPa 0,0 l/m 0,0 km/h (0 Bft) SW 228 0 min 0,000 mm 2,0 UV-I 240 W/m 7,8 C 11,5 C 0,0 km/h (0 Bft) 0,00 %
01.05.2015 14:45 11,5 C 79 % 1006,5 hPa 0,0 l/m 0,0 km/h (0 Bft) S 180 0 min 0,000 mm 2,0 UV-I 298 W/m 8,0 C 11,5 C 0,0 km/h (0 Bft) 0,00 %
01.05.2015 15:00 11,3 C 80 % 1006,6 hPa 0,0 l/m 0,0 km/h (0 Bft) SO 145 0 min 0,000 mm 1,0 UV-I 270 W/m 8,0 C 11,3 C 0,0 km/h (0 Bft) 0,00 %
01.05.2015 15:15 11,4 C 82 % 1006,7 hPa 0,0 l/m 0,0 km/h (0 Bft) S-SW 209 0 min 0,000 mm 2,0 UV-I 282 W/m 8,4 C 11,4 C 0,0 km/h (0 Bft) 0,00 %
01.05.2015 15:30 11,1 C 82 % 1006,3 hPa 0,3 l/m 0,0 km/h (0 Bft) O-SO 106 0 min 0,000 mm 2,0 UV-I 257 W/m 8,1 C 11,1 C 0,0 km/h (0 Bft) 0,00 %
01.05.2015 15:45 11,3 C 82 % 1006,5 hPa 0,0 l/m 0,0 km/h (0 Bft) S-SO 156 0 min 0,000 mm 1,0 UV-I 244 W/m 8,3 C 11,3 C 0,0 km/h (0 Bft) 0,00 %
01.05.2015 16:00 11,0 C 82 % 1006,0 hPa 0,3 l/m 0,0 km/h (0 Bft) SO 132 0 min 0,000 mm 1,0 UV-I 205 W/m 8,0 C 11,0 C 0,0 km/h (0 Bft) 0,00 %
01.05.2015 16:15 11,2 C 85 % 1006,2 hPa 0,0 l/m 0,0 km/h (0 Bft) S 176 0 min 0,000 mm 1,0 UV-I 208 W/m 8,8 C 11,2 C 0,0 km/h (0 Bft) 0,00 %
01.05.2015 16:30 11,0 C 85 % 1005,9 hPa 0,0 l/m 0,0 km/h (0 Bft) S-SW 203 0 min 0,000 mm 1,0 UV-I 143 W/m 8,6 C 11,0 C 0,0 km/h (0 Bft) 0,00 %
01.05.2015 16:45 10,8 C 88 % 1005,7 hPa 0,3 l/m 0,0 km/h (0 Bft) SO 132 0 min 0,000 mm 1,0 UV-I 124 W/m 8,9 C 10,8 C 0,0 km/h (0 Bft) 0,00 %
01.05.2015 17:00 10,8 C 87 % 1005,7 hPa 0,0 l/m 0,0 km/h (0 Bft) SW 223 0 min 0,000 mm 1,0 UV-I 127 W/m 8,7 C 10,8 C 0,0 km/h (0 Bft) 0,00 %
01.05.2015 17:15 10,8 C 87 % 1005,2 hPa 0,3 l/m 2,2 km/h (1 Bft) S 172 0 min 0,000 mm 1,0 UV-I 113 W/m 8,7 C 10,8 C 4,0 km/h (1 Bft) 0,00 %
01.05.2015 17:30 10,9 C 88 % 1005,0 hPa 0,0 l/m 7,2 km/h (2 Bft) O-SO 113 0 min 0,000 mm 1,0 UV-I 138 W/m 9,0 C 10,3 C 11,9 km/h (2 Bft) 0,00 %
01.05.2015 17:45 10,8 C 88 % 1004,8 hPa 0,0 l/m 0,0 km/h (0 Bft) S-SW 192 0 min 0,000 mm 1,0 UV-I 178 W/m 8,9 C 10,8 C 0,0 km/h (0 Bft) 0,00 %
01.05.2015 18:00 10,7 C 88 % 1004,5 hPa 0,0 l/m 4,3 km/h (1 Bft) O-SO 106 0 min 0,000 mm 1,0 UV-I 176 W/m 8,8 C 10,7 C 7,9 km/h (2 Bft) 0,00 %
01.05.2015 18:15 10,6 C 89 % 1004,2 hPa 0,0 l/m 1,4 km/h (1 Bft) SO 130 0 min 0,000 mm 1,0 UV-I 165 W/m 8,9 C 10,6 C 4,0 km/h (1 Bft) 0,00 %
01.05.2015 18:30 10,7 C 89 % 1004,1 hPa 0,0 l/m 0,0 km/h (0 Bft) O-SO 116 0 min 0,000 mm 0,0 UV-I 100 W/m 9,0 C 10,7 C 0,0 km/h (0 Bft) 0,00 %
01.05.2015 18:45 10,5 C 89 % 1004,0 hPa 0,0 l/m 1,8 km/h (1 Bft) O-SO 102 0 min 0,000 mm 0,0 UV-I 114 W/m 8,8 C 10,5 C 4,0 km/h (1 Bft) 0,00 %
01.05.2015 19:00 10,4 C 89 % 1003,8 hPa 0,0 l/m 1,8 km/h (1 Bft) S 176 0 min 0,000 mm 0,0 UV-I 55 W/m 8,7 C 10,4 C 4,0 km/h (1 Bft) 0,00 %
01.05.2015 19:15 10,3 C 92 % 1003,5 hPa 0,3 l/m 4,0 km/h (1 Bft) SO 129 0 min 0,000 mm 0,0 UV-I 42 W/m 9,1 C 10,3 C 4,0 km/h (1 Bft) 0,00 %
01.05.2015 19:30 10,1 C 92 % 1003,7 hPa 0,0 l/m 4,7 km/h (1 Bft) O-NO 63 0 min 0,000 mm 0,0 UV-I 30 W/m 8,9 C 10,1 C 7,9 km/h (2 Bft) 0,00 %
01.05.2015 19:45 10,1 C 93 % 1003,7 hPa 0,0 l/m 2,2 km/h (1 Bft) O 101 0 min 0,000 mm 0,0 UV-I 10 W/m 9,0 C 10,1 C 4,0 km/h (1 Bft) 0,00 %
01.05.2015 20:00 10,0 C 93 % 1003,6 hPa 0,3 l/m 0,0 km/h (0 Bft) S 180 0 min 0,000 mm 0,0 UV-I 12 W/m 8,9 C 10,0 C 0,0 km/h (0 Bft) 0,00 %
01.05.2015 20:15 9,9 C 94 % 1003,9 hPa 0,3 l/m 0,4 km/h (0 Bft) S-SW 197 0 min 0,000 mm 0,0 UV-I 1 W/m 9,0 C 9,9 C 4,0 km/h (1 Bft) 0,00 %
01.05.2015 20:30 10,0 C 95 % 1003,7 hPa 0,3 l/m 0,0 km/h (0 Bft) O-SO 102 0 min 0,000 mm 0,0 UV-I 0 W/m 9,2 C 10,0 C 0,0 km/h (0 Bft) 0,00 %
01.05.2015 20:45 10,0 C 96 % 1003,7 hPa 0,3 l/m 0,0 km/h (0 Bft) O 99 0 min 0,000 mm 0,0 UV-I 0 W/m 9,4 C 10,0 C 0,0 km/h (0 Bft) 0,00 %
01.05.2015 21:00 10,0 C 97 % 1003,8 hPa 0,3 l/m 0,4 km/h (0 Bft) SO 124 0 min 0,000 mm 0,0 UV-I 0 W/m 9,5 C 10,0 C 4,0 km/h (1 Bft) 0,00 %
01.05.2015 21:15 9,9 C 97 % 1003,6 hPa 0,3 l/m 4,3 km/h (1 Bft) O-SO 103 0 min 0,000 mm 0,0 UV-I 0 W/m 9,4 C 9,9 C 7,9 km/h (2 Bft) 0,00 %
01.05.2015 21:30 9,9 C 97 % 1003,6 hPa 0,0 l/m 0,7 km/h (0 Bft) O-NO 72 0 min 0,000 mm 0,0 UV-I 0 W/m 9,4 C 9,9 C 4,0 km/h (1 Bft) 0,00 %
01.05.2015 21:45 9,7 C 97 % 1003,6 hPa 0,3 l/m 3,2 km/h (1 Bft) O 94 0 min 0,000 mm 0,0 UV-I 0 W/m 9,2 C 9,7 C 4,0 km/h (1 Bft) 0,00 %
01.05.2015 22:00 9,6 C 97 % 1003,5 hPa 0,0 l/m 0,4 km/h (0 Bft) SO 139 0 min 0,000 mm 0,0 UV-I 0 W/m 9,1 C 9,6 C 4,0 km/h (1 Bft) 0,00 %
01.05.2015 22:15 9,6 C 98 % 1003,4 hPa 0,3 l/m 0,0 km/h (0 Bft) S 173 0 min 0,000 mm 0,0 UV-I 0 W/m 9,3 C 9,6 C 0,0 km/h (0 Bft) 0,00 %
01.05.2015 22:30 9,6 C 98 % 1003,5 hPa 0,3 l/m 0,4 km/h (0 Bft) SO 135 0 min 0,000 mm 0,0 UV-I 0 W/m 9,3 C 9,6 C 4,0 km/h (1 Bft) 0,00 %
01.05.2015 22:45 9,6 C 98 % 1003,3 hPa 0,6 l/m 0,0 km/h (0 Bft) O-SO 117 0 min 0,000 mm 0,0 UV-I 0 W/m 9,3 C 9,6 C 0,0 km/h (0 Bft) 0,00 %
01.05.2015 23:00 9,6 C 98 % 1003,3 hPa 0,3 l/m 0,0 km/h (0 Bft) S 173 0 min 0,000 mm 0,0 UV-I 0 W/m 9,3 C 9,6 C 0,0 km/h (0 Bft) 0,00 %
01.05.2015 23:15 9,6 C 98 % 1003,1 hPa 0,0 l/m 0,0 km/h (0 Bft) O-SO 123 0 min 0,000 mm 0,0 UV-I 0 W/m 9,3 C 9,6 C 0,0 km/h (0 Bft) 0,00 %
01.05.2015 23:30 9,5 C 99 % 1003,3 hPa 0,0 l/m 0,0 km/h (0 Bft) S-SO 164 0 min 0,000 mm 0,0 UV-I 0 W/m 9,4 C 9,5 C 0,0 km/h (0 Bft) 0,00 %
01.05.2015 23:45 9,5 C 99 % 1003,2 hPa 0,3 l/m 0,0 km/h (0 Bft) O-SO 115 0 min 0,000 mm 0,0 UV-I 0 W/m 9,4 C 9,5 C 0,0 km/h (0 Bft) 0,00 %
_ Min-Zeit 00:15 12:00 23:15 - 00:00 - - - - - - 00:00 00:15 00:00 00:00
Minimum _ 6,0 C 69 % 1003,1 hPa - 0,0 km/h (0 Bft) - - - - - - 5,0 C 6,0 C 0,0 km/h (0 Bft) 0,00 %
_ Max-Zeit 12:15 23:30 01:00 22:45 17:30 - - 00:00 00:00 11:00 12:00 21:00 12:15 17:30 00:00
Maximum _ 13,0 C 99 % 1014,0 hPa 0,6 l/m 7,2 km/h
O-SO (2 Bft)
- - 0 min 0,000 mm 3,0 UV-I 394 W/m 9,5 C 13,0 C 11,9 km/h
O-SO (2 Bft)
0,00 %
Durchschnitt _ 9,2 C 91 % 1007,9 hPa #9,9 l/m 0,5 km/h (0 Bft) O-SO - #0 min. #0,000 mm 1,6 UV-I 174 W/m 7,7 C 9,2 C 1,0 km/h (0 Bft) 0,00 %